Location: Riverside Cemetery
(38.3047°N, 99.7773°W)
Time: 03:50:42
(UTC+00:00)

OBJECT-B - Pass Details

Date: 19 September 2020
Orbit: 421 x 433 km, 97.0° (Epoch: 09 October)

Event Time Altitude Azimuth Distance (km) Brightness Sun altitude
Exits shadow 02:47:25 15° 357° (N) 1,228 3.4 -24.8°
Drops below altitude 10° 02:48:06 10° 355° (N) 1,515 3.9 -25.0°
Sets 02:50:07 0° 352° (N) 2,386 5.0 -25.3°
